Home   Weather   Grudziądz   Past weeks

Flag for Poland Past Weather in Grudziądz, Poland — Yesterday and Last 2 Weeks

Now
37 °F

Light rain. Overcast.


Feels Like: 35 °F
Forecast: 41 / 48 °F
Wind: 3 mph from Southwest

Location: Torun

Current Time: Feb 26, 2017 at 8:46:22 am

Latest Report: Feb 26, 2017 at 7:00 am


Visibility: 7 mi

Pressure: 29.82 "Hg

Humidity: 88%

Dew Point: 34 °F

Location of GrudziądzLocation

Past Weather in Grudziądz — Graph

°F

Grudziądz Temperature Yesterday

Maximum temperature yesterday: 40 °F (at 3:00 pm)
Minimum temperature yesterday: 26 °F (at 2:00 am)
Average temperature yesterday: 33 °F

High & Low Weather Summary for the Past Weeks

 TemperatureHumidityPressure
High48 °F (Feb 16, 3:00 pm)100% (Feb 17, 5:00 am)30.75 "Hg (Feb 17, 5:00 am)
Low14 °F (Feb 11, 7:00 am)44% (Feb 14, 3:00 pm)29.06 "Hg (Feb 24, 4:00 am)
Average34 °F84%30.09 "Hg
* Reported Feb 11 7:00 am — Feb 26 7:00 am, Grudziądz, Weather by CustomWeather, © 2017

Note: Actual official high and low records may vary slightly from our data, if they occured in-between our weather recording intervals... More about our weather records

Advertising

Grudziądz Weather History for the Previous 24 Hours

Scroll right to see more
 ConditionsComfort  
Time TempWeatherWind HumidityBarometerVisibility
7:00 am
Sun, Feb 26
37 °FLight rain. Overcast.3 mph88%29.82 "Hg7 mi
6:00 am36 °FOvercast.3 mph90%29.83 "Hg9 mi
5:00 am36 °FLight rain. Overcast.3 mph92%29.85 "Hg6 mi
4:00 am35 °FFog.5 mph94%29.87 "Hg6 mi
3:00 am35 °FLight rain. Overcast.5 mph94%29.91 "Hg5 mi
2:00 am34 °FLight rain. Overcast.5 mph96%29.94 "Hg3 mi
1:00 am33 °FLight snow. Overcast.3 mph95%29.97 "Hg2 mi
12:00 am35 °FLight rain. Overcast.5 mph83%29.99 "Hg4 mi
11:00 pm
Sat, Feb 25
36 °FOvercast.3 mph75%30.01 "Hg12 mi
10:00 pm35 °FOvercast.3 mph77%30.03 "Hg10 mi
9:00 pm35 °FPassing clouds.3 mph80%30.05 "Hg7 mi
8:00 pm34 °FPassing clouds.2 mph80%30.07 "Hg6 mi
7:00 pm33 °FPassing clouds.2 mph79%30.08 "Hg6 mi
6:00 pm34 °FPassing clouds.2 mph76%30.07 "Hg6 mi
5:00 pm36 °FScattered clouds.2 mph65%30.07 "Hg31 mi
4:00 pm39 °FScattered clouds.2 mph55%30.06 "Hg19 mi
3:00 pm40 °FPassing clouds.2 mph54%30.06 "Hg19 mi
2:00 pm39 °FPassing clouds.3 mph57%30.06 "Hg11 mi
1:00 pm38 °FPassing clouds.5 mph65%30.06 "Hg16 mi
12:00 pm37 °FScattered clouds.3 mph75%30.06 "Hg11 mi
11:00 am36 °FScattered clouds.3 mph79%30.04 "Hg16 mi
10:00 am35 °FPartly sunny.3 mph86%30.03 "Hg7 mi
9:00 am33 °FScattered clouds.3 mph92%30.01 "Hg8 mi
8:00 am31 °FPartly sunny.3 mph96%29.98 "Hg6 mi
Weather by CustomWeather, © 2017

See weather overviewHow to use our weather pages